User: anonymous
Location: Caltech
(34.1382°N, 118.1253°W)
Time: 22:55:56
(UTC-07:00)
Language:

Cosmos 1833 Rocket - Orbit

View from above orbital plane
View from above orbital plane
View from above satellite
View from above satellite

Ground track
Ground track

The orbit data is extracted from the following two-line orbital elements,

1 17590U 87027B   14261.22727562 -.00000146  00000-0 -49188-4 0  7730
2 17590 071.0019 101.8360 0004699 005.3578 354.7595 14.16652809422072
Epoch (UTC): 18 September 2014 05:27:16
Eccentricity: 0.0004699
inclination: 71.0019°
perigee height: 833 km
apogee height: 840 km
right ascension of ascending node: 101.8360°
argument of perigee: 5.3578°
revolutions per day: 14.16652809
mean anomaly at epoch: 354.7595°
orbit number at epoch: 42207

The dashed part of the orbit path shows where the satellite is in the earth's shadow,  

DLR